Weather History for Joplin, MO

Change the Weather History Date:

Sunday, December 30, 2012

  Actual Average Record
Temperature  
Mean Temperature 33 °F 35 °F  
Max Temperature 44 °F 45 °F 70 °F (1951)
Min Temperature 21 °F 25 °F -9 °F (1983)
Degree Days  
Heating Degree Days 32 30  
Month to date heating degree days 681 831  
Since 1 July heating degree days 1467 1588  
Cooling Degree Days 0 0  
Month to date cooling degree days 0 0  
Year to date cooling degree days 2106 1698  
Moisture  
Dew Point 17 °F    
Average Humidity 54    
Maximum Humidity 77    
Minimum Humidity 31    
Precipitation  
Precipitation 0.00 in 0.08 in 1.20 in (2006)
Month to date precipitation 0.89 2.75  
Year to date precipitation 37.85 46.48  
Snow  
Snow 0.00 in - - ()
Month to date snowfall T  
Snow Depth 0.00 in    
Sea Level Pressure  
Sea Level Pressure 30.34 in    
Wind  
Wind Speed 11 mph (South)    
Max Wind Speed 21 mph    
Max Gust Speed 24 mph    
Visibility 10 miles    
Events      
T = Trace of Precipitation, MM = Missing Value Source: NWS Daily Summary

Daily Weather History Graph

Daily Weather History Graph

Search for Another Location

Airport:

Trip Planner

Search our weather history database for the weather conditions in past years. The results will help you decide how hot, cold, wet, or windy it might be!

Date:

Astronomy

Dec. 30, 2012 Rise Set
Actual Time 7:31 AM CST 5:10 PM CST
Civil Twilight 7:02 AM CST 5:39 PM CST
Nautical Twilight 6:29 AM CST 6:11 PM CST
Astronomical Twilight 5:58 AM CST 6:43 PM CST
Moon 7:38 PM CST (12/30) 8:44 AM CST (12/30)
Length of Visible Light 10h 36m
Length of Day
9h 38m
Waning Gibbous, 95% of the Moon is Illuminated
Dec 30
Waning Gibbous
Jan 4
Last Quarter
Jan 11
New
Jan 18
First Quarter
Jan 26
Full

Hourly Weather History & Observations

Time (CST) Temp. Windchill Dew Point Humidity Pressure Visibility Wind Dir Wind Speed Gust Speed Precip Events Conditions
12:53 AM 23.0 °F 14.7 °F 15.1 °F 72% 30.41 in 10.0 mi SSW 6.9 mph - N/A   Clear
1:53 AM 21.9 °F 14.5 °F 15.1 °F 75% 30.41 in 10.0 mi South 5.8 mph - N/A   Clear
2:53 AM 21.9 °F 13.4 °F 15.1 °F 75% 30.42 in 10.0 mi South 6.9 mph - N/A   Clear
3:53 AM 21.9 °F 12.5 °F 15.1 °F 75% 30.42 in 10.0 mi South 8.1 mph - N/A   Clear
4:53 AM 21.9 °F 13.4 °F 15.1 °F 75% 30.41 in 10.0 mi South 6.9 mph - N/A   Clear
5:53 AM 23.0 °F 13.9 °F 16.0 °F 74% 30.41 in 10.0 mi South 8.1 mph - N/A   Clear
6:53 AM 24.1 °F 14.4 °F 17.1 °F 75% 30.41 in 10.0 mi South 9.2 mph - N/A   Clear
7:53 AM 25.0 °F 16.3 °F 17.1 °F 72% 30.41 in 10.0 mi South 8.1 mph - N/A   Clear
8:53 AM 28.0 °F 20.0 °F 19.0 °F 69% 30.43 in 10.0 mi South 8.1 mph - N/A   Clear
9:53 AM 34.0 °F 26.6 °F 23.0 °F 64% 30.42 in 10.0 mi South 9.2 mph - N/A   Clear
10:53 AM 39.9 °F 31.4 °F 21.9 °F 49% 30.40 in 10.0 mi South 16.1 mph - N/A   Clear
11:53 AM 43.0 °F 35.7 °F 18.0 °F 37% 30.36 in 10.0 mi SSW 15.0 mph 23.0 mph N/A   Clear
12:53 PM 43.0 °F 34.5 °F 17.1 °F 35% 30.35 in 10.0 mi SSW 19.6 mph 24.2 mph N/A   Clear
1:53 PM 44.1 °F 35.7 °F 16.0 °F 32% 30.31 in 10.0 mi SSW 20.7 mph - N/A   Clear
2:53 PM 43.0 °F 35.1 °F 16.0 °F 34% 30.30 in 10.0 mi South 17.3 mph - N/A   Clear
3:53 PM 42.1 °F 34.5 °F 15.1 °F 34% 30.30 in 10.0 mi South 15.0 mph - N/A   Clear
4:53 PM 39.0 °F 32.3 °F 16.0 °F 39% 30.28 in 10.0 mi South 10.4 mph - N/A   Clear
5:53 PM 37.9 °F 29.6 °F 17.1 °F 43% 30.28 in 10.0 mi South 13.8 mph - N/A   Clear
6:53 PM 37.9 °F 30.0 °F 18.0 °F 45% 30.26 in 10.0 mi South 12.7 mph - N/A   Clear
7:53 PM 37.0 °F 29.8 °F 18.0 °F 46% 30.25 in 10.0 mi South 10.4 mph - N/A   Clear
8:53 PM 37.0 °F 29.8 °F 17.1 °F 44% 30.24 in 10.0 mi South 10.4 mph - N/A   Clear
9:53 PM 37.0 °F 29.3 °F 17.1 °F 44% 30.22 in 10.0 mi South 11.5 mph - N/A   Clear
10:53 PM 37.0 °F 29.8 °F 18.0 °F 46% 30.22 in 10.0 mi SSW 10.4 mph - N/A   Clear
11:53 PM 37.0 °F 28.9 °F 19.0 °F 48% 30.24 in 10.0 mi SSW 12.7 mph - N/A   Clear